Location: Bay Ridge
(40.6340°N, 74.0146°W)
Time: 08:45:13
(UTC+00:00)

Cosmos 1606 - Pass Details

Date: 15 November 2019
Orbit: 504 x 528 km, 82.5° (Epoch: 08 December)

Event Time Altitude Azimuth Distance (km) Brightness Sun altitude
Rises 10:47:47 0° 358° (N) 2,617 6.1 -10.6°
Reaches altitude 10° 10:49:57 10° 4° (N) 1,730 5.2 -10.2°
Maximum altitude 10:53:38 49° 80° (E) 667 3.7 -9.5°
Drops below altitude 10° 10:57:19 10° 156° (SSE) 1,727 6.0 -8.9°
Sets 10:59:29 0° 162° (SSE) 2,612 6.8 -8.5°
